Theta_e
307 308 310 312 310 309 307 307 308 308 307 305 306 306 305 305 305 305 305 304 304 296 297 298 297 296 295 294 293 292 291 291 290 289 289 289 289 289 289 290 290 290 290 290
306 307 307 306 306 306 306 306 307 308 306 304 304 305 305 305 304 301 301 299 299 296 294 295 295 294 294 293 292 291 290 290 289 288 288 287 288 288 288 289 290 290 290 290
308 308 304 304 306 306 307 308 308 306 304 304 304 305 308 304 301 301 299 298 298 297 294 293 293 293 293 292 291 290 289 288 288 287 287 287 287 288 289 289 289 289 288 288
306 304 304 305 306 306 309 304 304 304 304 309 305 307 309 306 302 301 300 298 296 295 294 294 293 293 292 292 290 289 288 287 287 286 286 286 286 287 287 287 287 287 287 288
308 305 305 306 307 304 308 303 303 304 305 304 308 303 309 303 302 300 298 298 296 295 294 294 293 291 291 289 289 288 287 286 286 285 285 285 285 286 286 286 286 287 287 287
305 302 303 305 302 302 302 304 305 305 307 308 306 306 309 303 303 301 299 297 297 296 294 293 292 291 289 289 288 287 287 286 285 285 284 284 284 284 285 285 285 285 286 285
307 306 303 303 304 303 304 307 308 312 305 306 303 304 305 303 301 299 297 295 294 295 294 293 292 291 290 289 288 287 285 284 285 284 284 283 283 283 283 284 285 285 285 284
314 310 304 303 305 308 307 306 305 312 310 309 302 302 305 299 296 296 293 294 295 295 293 292 291 289 288 287 286 285 285 284 284 283 283 283 282 283 283 283 284 283 283 283
310 309 302 302 302 303 305 307 303 306 298 301 304 307 302 299 300 299 295 296 296 294 293 291 289 288 287 286 285 284 283 283 283 282 281 281 282 282 282 282 281 281 282 282
306 309 304 301 300 301 303 302 303 301 303 307 308 307 306 299 297 298 297 296 295 294 292 290 289 288 287 285 283 283 282 281 281 280 280 281 281 281 281 281 281 281 281 281
303 303 304 300 300 303 302 303 302 302 302 305 307 307 299 297 293 292 294 296 294 293 291 288 288 287 285 284 281 280 280 280 279 279 279 279 280 280 280 280 280 281 281 281
302 305 307 304 298 299 301 305 303 302 305 300 301 303 293 292 291 293 295 295 291 290 288 285 287 286 284 282 280 280 280 279 280 279 279 279 280 280 280 280 280 281 281 281
301 304 302 303 300 298 300 302 302 299 301 301 305 306 293 291 295 295 293 291 290 290 287 283 283 283 283 282 280 280 279 280 280 279 279 279 279 279 280 280 280 280 280 281
301 302 301 304 306 300 301 301 300 300 302 296 303 302 295 294 295 293 290 288 287 287 285 282 279 281 284 282 281 280 280 280 280 279 280 279 280 280 280 280 280 280 281 281
299 299 297 292 293 294 294 293 299 301 297 301 296 294 294 292 292 290 288 288 286 287 287 285 281 277 286 283 282 281 281 281 280 280 280 281 280 280 280 280 280 281 281 282
299 299 293 292 292 289 291 293 294 297 298 297 298 299 293 291 289 287 289 287 284 285 286 285 282 283 285 285 283 282 282 282 281 281 281 281 281 281 281 281 281 281 280 280
297 299 299 296 292 292 293 290 293 291 289 295 300 296 291 290 292 289 288 286 284 283 284 285 284 285 286 286 285 283 283 282 282 282 282 282 282 282 282 281 281 281 280 280
299 298 298 300 291 296 292 282 284 288 284 287 290 289 291 290 292 291 288 286 283 283 283 285 286 287 285 284 284 283 283 283 283 283 282 282 282 282 282 282 281 280 280 280
298 296 298 293 302 296 296 286 286 289 290 286 288 287 288 288 290 288 283 283 282 282 285 287 289 288 285 284 282 283 282 282 283 283 283 283 282 282 281 281 280 280 280 280
299 297 295 294 296 295 294 289 288 286 291 285 284 285 286 291 292 295 288 285 285 286 287 288 288 287 286 285 283 281 282 282 282 283 284 284 282 281 280 280 280 280 279 279
295 297 297 295 299 294 290 290 290 294 297 286 285 284 288 290 289 288 287 285 286 287 286 285 284 284 284 284 284 282 281 281 283 283 284 284 282 281 280 280 280 280 279 279
292 292 292 295 299 294 289 290 293 293 284 284 284 283 284 284 284 286 284 283 283 283 283 282 281 281 281 281 282 282 281 282 282 282 283 283 283 282 280 280 280 279 279 278
292 295 296 295 295 292 288 289 283 281 283 283 284 283 284 284 284 284 284 284 283 282 281 280 279 279 279 279 280 280 281 281 281 281 282 282 283 282 281 280 279 279 279 278
292 293 295 294 293 291 288 286 284 284 286 285 284 283 283 283 283 282 282 281 281 280 279 278 277 277 277 278 278 278 277 277 278 280 280 281 281 281 281 280 279 278 278 278
296 293 295 296 293 291 290 288 287 284 283 284 282 282 281 281 281 280 279 280 279 278 277 276 276 276 276 276 276 276 276 276 276 277 278 279 279 280 280 280 280 279 279 279
293 295 297 297 294 293 291 286 285 285 284 282 281 281 281 280 279 278 278 277 277 276 276 275 275 275 275 275 274 274 274 274 274 275 277 278 279 279 280 280 279 280 280 280
Wind_Speed
3 4 6 6 6 4 4 4 8 9 6 5 7 13 14 15 13 12 9 7 5 12 9 19 16 14 13 9 7 6 4 3 3 5 7 7 9 12 12 9 12 13 10 11
2 6 4 4 4 2 5 7 7 8 3 4 8 19 22 18 8 6 8 9 9 8 8 11 11 9 7 8 6 4 3 2 4 5 7 10 12 11 13 11 10 9 9 10
5 3 3 1 4 5 5 5 4 5 9 9 7 9 4 5 9 8 8 8 9 8 7 6 7 5 5 5 6 5 3 4 5 8 10 10 10 10 10 9 11 11 11 13
5 4 2 3 4 2 1 5 4 5 5 3 6 5 6 7 7 8 7 8 7 7 6 5 7 7 6 3 3 3 4 6 6 8 8 8 11 12 11 13 13 14 13 13
2 4 3 1 1 3 1 4 4 3 3 6 3 1 6 8 7 7 7 6 6 5 3 2 2 3 2 3 3 3 5 6 7 8 9 9 11 11 13 14 14 14 14 11
3 2 2 1 4 1 4 4 5 3 2 3 3 3 2 3 2 5 5 7 6 4 3 5 7 5 5 5 5 5 5 6 6 8 8 9 10 12 13 14 16 14 13 15
3 3 3 1 2 3 2 3 1 2 1 4 1 0 5 3 4 3 4 8 7 7 2 2 4 4 6 5 4 3 6 7 7 8 8 9 10 11 13 13 13 14 15 15
5 3 4 2 3 1 1 0 2 4 3 2 4 5 4 3 2 3 5 7 6 5 4 3 3 2 2 1 4 5 5 6 7 8 8 8 9 10 11 12 12 14 17 18
4 3 5 4 3 2 3 2 3 1 2 1 4 1 3 5 2 2 5 5 6 6 5 3 3 3 3 3 3 5 6 6 9 9 9 8 9 10 11 13 14 15 15 16
2 4 2 3 1 2 3 1 2 0 2 4 4 3 5 4 5 8 7 7 8 6 6 4 2 3 3 4 6 6 7 9 10 9 6 8 9 10 11 13 15 15 16 17
4 1 4 3 6 5 3 2 2 1 2 2 3 4 3 9 4 6 7 7 8 7 5 4 4 3 5 9 9 9 8 9 9 7 8 7 9 9 10 12 13 14 16 16
3 1 3 2 2 3 3 1 5 3 3 2 1 5 2 4 4 4 6 6 6 6 7 4 3 5 9 10 10 9 9 10 8 8 8 7 8 9 10 10 11 12 14 15
3 3 2 2 3 2 3 4 5 3 0 5 2 4 1 4 4 3 6 7 6 7 6 5 3 7 11 11 11 11 10 9 8 8 8 7 9 8 8 9 9 11 12 12
1 2 3 2 4 3 4 8 11 6 3 3 8 6 3 4 6 8 6 6 5 6 6 5 5 7 10 11 12 12 10 9 9 8 9 10 9 8 8 8 8 9 10 10
0 3 1 3 4 4 5 6 11 16 11 5 3 4 5 5 5 6 5 5 5 7 7 7 6 4 8 10 12 12 11 10 8 9 10 9 9 8 8 7 7 7 8 7
3 2 1 3 1 3 4 10 10 11 12 11 13 19 3 4 3 5 6 4 5 5 7 7 6 10 11 14 15 13 13 11 9 10 11 9 9 8 6 5 5 5 5 6
4 2 2 3 1 3 6 8 11 5 3 9 12 8 1 4 7 5 6 3 4 6 6 8 8 12 18 18 15 16 13 11 12 12 11 9 8 9 8 7 6 7 8 9
5 3 2 3 3 1 5 0 2 5 4 4 4 4 1 3 9 12 6 3 5 7 7 8 11 18 23 19 17 15 13 13 14 15 14 12 11 11 10 10 10 10 10 10
3 3 2 2 3 5 1 4 5 5 6 6 6 3 3 5 9 2 3 2 3 5 9 14 19 21 23 21 16 16 16 17 17 20 20 17 15 15 14 14 12 11 12 13
5 0 3 2 2 5 4 2 3 2 4 1 4 2 3 6 3 1 7 7 8 15 19 20 21 19 21 21 16 14 19 19 23 25 25 22 20 20 20 18 16 15 14 15
3 2 7 4 3 6 3 5 5 5 3 2 3 4 3 4 3 9 11 8 14 15 19 20 21 19 19 21 18 15 18 22 27 26 25 24 23 23 22 20 18 17 16 16
6 6 3 4 5 8 5 5 5 3 2 3 1 2 4 6 7 8 6 7 8 12 17 20 18 18 22 21 20 18 19 24 23 24 26 27 27 27 25 23 21 21 19 20
3 5 4 6 4 1 3 3 2 3 3 0 1 2 4 7 7 8 9 9 11 15 17 17 18 20 19 20 19 19 20 24 25 24 27 28 28 28 27 26 26 23 21 22
4 2 2 3 1 3 4 2 3 2 1 2 3 3 5 6 8 9 9 9 10 15 17 19 19 18 19 21 21 21 24 24 24 25 25 26 27 29 29 30 28 28 26 26
1 5 5 2 3 4 3 4 5 4 2 4 4 3 4 5 6 8 8 9 13 16 18 18 17 18 20 22 24 25 23 24 23 21 21 21 22 25 26 29 30 31 33 30
5 6 4 4 7 3 4 8 4 4 3 4 4 4 5 6 8 10 8 13 14 17 18 18 18 19 20 22 24 25 24 24 23 20 17 17 19 20 22 24 25 26 26 24
Wind_Direction
191 225 215 236 207 319 347 295 272 289 334 345 290 291 282 280 282 282 271 280 292 77 66 89 97 109 122 135 160 171 184 210 289 305 321 310 304 308 306 299 292 297 302 302
144 227 67 76 59 341 288 279 278 281 84 339 278 285 282 280 288 49 31 43 64 78 62 76 98 110 134 155 168 182 213 238 292 305 297 297 302 310 307 313 312 309 311 304
237 86 109 30 284 241 255 259 322 318 334 264 313 281 304 90 81 77 65 65 39 68 95 89 91 122 152 166 185 183 225 268 290 294 298 308 307 309 314 319 315 309 306 307
252 110 208 207 247 77 283 28 8 326 2 282 53 288 326 89 90 86 84 69 65 60 67 118 151 159 190 182 188 237 263 283 298 290 305 306 305 307 314 319 316 312 314 310
128 166 170 110 51 57 179 355 292 297 311 332 297 89 269 118 79 72 66 78 80 84 38 57 106 111 99 198 220 243 271 287 296 299 298 301 306 310 313 314 313 312 312 307
58 53 12 220 100 64 343 306 254 219 296 264 232 163 297 352 302 59 73 72 29 359 290 217 181 200 235 235 261 259 274 294 294 292 291 297 300 308 309 309 308 311 308 305
136 161 105 306 170 152 85 256 272 269 304 237 194 185 279 60 13 19 331 321 310 287 324 9 320 205 212 203 249 252 280 285 287 285 291 295 300 296 296 302 306 306 305 310
170 244 162 43 28 98 142 276 139 268 321 330 162 241 243 183 237 264 266 273 291 354 356 338 334 328 307 224 264 277 279 289 297 289 295 297 290 290 292 292 292 291 294 298
121 146 92 59 43 324 167 140 21 275 102 51 227 178 57 131 4 307 335 336 326 320 314 299 257 256 254 265 271 275 280 284 270 281 286 295 294 291 288 288 289 290 292 295
99 121 157 112 340 14 24 34 91 307 270 263 238 228 205 192 341 347 333 310 303 299 310 306 273 250 243 238 250 264 262 268 282 285 286 282 287 287 289 292 292 293 295 298
133 100 126 145 211 162 121 168 241 11 187 230 302 255 286 144 206 257 284 298 305 312 290 300 299 272 244 266 274 273 276 279 280 288 287 286 288 290 289 290 294 298 298 304
42 144 186 117 65 25 23 334 195 174 198 241 234 272 324 159 232 242 302 327 318 313 314 289 292 282 265 268 269 273 277 274 288 291 291 289 297 293 289 290 300 302 304 305
174 206 164 175 138 114 216 179 245 72 59 212 218 265 261 291 326 345 333 325 325 327 333 320 289 259 265 268 269 268 267 276 283 287 293 298 284 289 289 298 301 298 299 309
356 276 228 164 85 102 190 206 208 203 209 232 223 270 240 306 339 336 330 305 320 336 328 305 300 271 269 267 263 265 268 273 281 292 300 296 296 294 300 300 302 301 308 315
161 228 85 278 226 204 209 218 200 212 224 236 265 261 277 304 288 280 280 306 336 346 341 337 313 283 269 271 269 269 268 270 277 281 284 294 296 293 296 295 301 310 312 324
168 112 84 286 8 137 250 234 219 226 236 252 264 275 254 258 292 310 287 319 324 327 323 319 304 308 292 279 271 270 266 268 266 270 276 281 284 290 295 295 307 303 308 311
150 151 168 270 232 315 298 223 195 186 199 208 243 249 297 319 315 283 284 282 298 310 307 311 311 313 318 306 286 265 267 264 260 263 266 267 267 270 273 285 292 301 311 316
152 152 147 279 22 273 249 94 173 172 229 236 289 257 264 268 293 299 267 121 319 295 302 313 307 313 324 315 291 273 263 263 258 259 258 256 256 256 260 270 279 290 297 300
165 173 197 181 245 278 247 231 160 154 274 197 207 281 311 316 304 338 50 83 249 285 297 302 311 314 322 319 299 276 266 254 256 259 260 258 254 256 258 264 273 281 286 291
184 147 161 123 234 237 228 200 170 110 301 308 109 277 309 336 334 195 342 337 329 320 318 319 325 326 324 334 324 283 273 267 262 264 266 267 261 257 258 261 266 273 273 282
146 159 219 217 259 288 202 149 164 92 233 212 155 242 265 272 249 313 323 312 310 318 334 338 340 332 333 332 321 296 289 273 277 277 273 268 263 260 260 262 262 261 264 271
164 166 189 182 210 265 149 99 169 149 300 136 27 286 280 276 297 298 309 312 317 335 339 341 336 331 329 332 330 306 289 305 299 287 277 272 266 260 260 259 261 260 262 266
231 201 183 187 211 310 155 134 161 147 159 257 293 325 320 310 316 326 323 336 341 338 339 338 335 328 331 336 335 323 316 315 307 297 283 275 274 265 258 255 257 257 259 261
244 179 225 49 233 169 140 90 128 126 93 359 29 355 334 323 327 327 334 340 339 341 340 338 335 331 328 333 331 326 325 321 314 302 292 283 276 274 265 257 255 254 255 255
154 136 198 238 102 82 162 134 138 145 123 51 31 22 3 343 337 341 335 339 338 337 335 335 333 329 325 329 331 337 336 340 327 310 298 285 278 273 268 264 255 251 257 255
180 191 192 223 168 140 131 128 114 123 83 56 22 9 18 10 347 345 337 337 337 332 330 333 332 330 325 330 333 344 344 335 328 317 304 290 285 276 268 265 265 261 255 259